Weather History for Ft Pierce, FL

Change the Weather History Date:

Wednesday, February 13, 2013

  Actual Average Record
Temperature  
Mean Temperature 78 °F -  
Max Temperature 87 °F 73 °F 87 °F (2013)
Min Temperature 69 °F 50 °F 32 °F (1985)
Cooling Degree Days 13    
Growing Degree Days 28 (Base 50)    
Moisture  
Dew Point 66 °F    
Average Humidity 74    
Maximum Humidity 94    
Minimum Humidity 44    
Precipitation  
Precipitation 0.00 in - - ()
Sea Level Pressure  
Sea Level Pressure 29.95 in    
Wind  
Wind Speed 9 mph (SW)    
Max Wind Speed 18 mph    
Max Gust Speed 26 mph    
Visibility 8 miles    
Events      
Averages and records for this station are not official NWS values.
T = Trace of Precipitation, MM = Missing Value Source: NWS Daily Summary

Daily Weather History Graph

Daily Weather History Graph

Search for Another Location

Airport:

Trip Planner

Search our weather history database for the weather conditions in past years. The results will help you decide how hot, cold, wet, or windy it might be!

Date:

Astronomy

Feb. 13, 2013 Rise Set
Actual Time 6:59 AM EST 6:11 PM EST
Civil Twilight 6:35 AM EST 6:35 PM EST
Nautical Twilight 6:08 AM EST 7:03 PM EST
Astronomical Twilight 5:41 AM EST 7:30 PM EST
Moon 8:52 AM EST (2/13) 9:45 PM EST (2/13)
Length of Visible Light 11h 59m
Length of Day
11h 11m
Waxing Crescent, 13% of the Moon is Illuminated
Feb 13
Waxing Crescent
Feb 17
First Quarter
Feb 25
Full
Mar 4
Last Quarter
Mar 11
New

Hourly Weather History & Observations

Time (EST) Temp. Heat Index Dew Point Humidity Pressure Visibility Wind Dir Wind Speed Gust Speed Precip Events Conditions
12:53 AM 70.0 °F - 66.0 °F 87% 29.99 in 10.0 mi SSW 5.8 mph - N/A   Clear
1:53 AM 69.1 °F - 66.0 °F 90% 29.98 in 9.0 mi South 4.6 mph - N/A   Clear
2:53 AM 69.1 °F - 66.0 °F 90% 29.97 in 7.0 mi South 6.9 mph - N/A   Partly Cloudy
3:53 AM 69.1 °F - 66.9 °F 93% 29.96 in 7.0 mi South 6.9 mph - N/A   Clear
4:53 AM 70.0 °F - 66.9 °F 90% 29.96 in 7.0 mi SSW 8.1 mph - N/A   Clear
5:53 AM 70.0 °F - 66.9 °F 90% 29.96 in 6.0 mi South 8.1 mph - N/A   Partly Cloudy
6:18 AM 69.8 °F - 66.2 °F 88% 29.98 in 6.0 mi West 6.9 mph - N/A   Mostly Cloudy
6:53 AM 70.0 °F - 68.0 °F 93% 29.97 in 6.0 mi SSW 8.1 mph - N/A   Overcast
7:30 AM 69.8 °F - 68.0 °F 94% 29.98 in 2.5 mi SSW 9.2 mph - N/A   Overcast
7:53 AM 70.0 °F - 68.0 °F 93% 29.98 in 4.0 mi SSW 8.1 mph - N/A   Overcast
8:34 AM 71.6 °F - 69.8 °F 94% 30.00 in 6.0 mi SSW 12.7 mph 18.4 mph N/A   Overcast
8:53 AM 72.0 °F - 70.0 °F 93% 30.00 in 7.0 mi South 11.5 mph 19.6 mph N/A   Overcast
9:53 AM 77.0 °F - 70.0 °F 79% 29.99 in 10.0 mi SSW 12.7 mph - N/A   Mostly Cloudy
9:58 AM 77.0 °F - 69.8 °F 78% 29.99 in 10.0 mi SSW 12.7 mph - N/A   Scattered Clouds
10:53 AM 81.0 °F 84.1 °F 69.1 °F 67% 29.98 in 10.0 mi South 13.8 mph 19.6 mph N/A   Scattered Clouds
11:53 AM 82.9 °F 85.4 °F 66.9 °F 58% 29.96 in 10.0 mi SSW 16.1 mph 23.0 mph N/A   Scattered Clouds
12:53 PM 87.1 °F 89.2 °F 66.0 °F 49% 29.93 in 10.0 mi WSW 16.1 mph 24.2 mph N/A   Partly Cloudy
1:53 PM 84.9 °F 85.9 °F 63.0 °F 48% 29.90 in 10.0 mi SW 18.4 mph 26.5 mph N/A   Scattered Clouds
2:53 PM 87.1 °F 87.8 °F 63.0 °F 44% 29.87 in 10.0 mi SW 17.3 mph 25.3 mph N/A   Clear
3:53 PM 87.1 °F 87.8 °F 63.0 °F 44% 29.87 in 10.0 mi SW 13.8 mph 26.5 mph N/A   Clear
4:53 PM 84.9 °F 85.4 °F 62.1 °F 46% 29.87 in 10.0 mi SW 12.7 mph 23.0 mph N/A   Scattered Clouds
5:53 PM 82.9 °F 84.0 °F 63.0 °F 51% 29.87 in 10.0 mi SW 15.0 mph 20.7 mph N/A   Partly Cloudy
6:53 PM 79.0 °F - 64.0 °F 60% 29.89 in 10.0 mi SW 6.9 mph - N/A   Clear
7:53 PM 75.9 °F - 64.0 °F 67% 29.90 in 10.0 mi SW 5.8 mph - N/A   Clear
8:53 PM 73.0 °F - 64.0 °F 73% 29.94 in 10.0 mi WSW 6.9 mph - N/A   Clear
9:53 PM 73.9 °F - 66.0 °F 76% 29.94 in 10.0 mi WSW 8.1 mph - N/A   Clear
10:53 PM 73.0 °F - 66.9 °F 81% 29.96 in 10.0 mi WSW 5.8 mph - N/A   Clear
11:46 PM 71.6 °F - 60.8 °F 69% 29.98 in 10.0 mi NNW 9.2 mph 18.4 mph N/A   Overcast
11:53 PM 70.0 °F - 57.9 °F 65% 29.99 in 10.0 mi NNW 5.8 mph - N/A   Overcast